Regional Weather Roundup
Issued by NWS Cleveland, OH

Home | Current Version | Previous Version | Graphics & Text | Print | Product List | Glossary Off
Versions: 1 2 3 4 5 6 7 8 9 10 11 12 13 14 15 16 17 18 19 20 21 22 23 24 25 26 27 28 29 30 31 32 33 34 35 36 37 38 39 40 41 42 43 44 45 46 47 48 49 50

171
ASUS41 KCLE 230812
RWRCLE
OHIO REGIONAL WEATHER ROUNDUP
NATIONAL WEATHER SERVICE WILMINGTON, OH
400 AM EDT WED AUG 23 2017

NOTE: "FAIR" INDICATES FEW OR NO CLOUDS BELOW 12,000 FEET WITH NO
SIGNIFICANT WEATHER AND/OR OBSTRUCTIONS TO VISIBILITY.

OHZ001>008-015>018-024>027-034-035-043-044-230900-
   NORTHWEST OHIO

CITY           SKY/WX    TMP DP  RH WIND       PRES   REMARKS
DEFIANCE       FAIR      55  53  93 CALM      29.97S
FINDLAY        FAIR      58  52  80 W3        29.96R
TOLEDO EXPRESS FAIR      57  55  93 W6        29.95S
TOLEDO EXEC    FAIR      57  54  89 W6        29.95S
LIMA           FAIR      57  55  93 W5        29.98S
$$

OHZ009>014-019>023-028>033-038-089-230900-
   NORTHEAST OHIO

CITY           SKY/WX    TMP DP  RH WIND       PRES   REMARKS
CLE-HOPKINS    FAIR      63  56  78 SW3       29.94R
CLE-LAKEFRONT  FAIR      70  54  56 NW13      29.90S
CUY CO. ARPT   NOT AVBL
LORAIN-ELYRIA  FAIR      59  52  77 W6        29.94R
ASHTABULA      FAIR      59  57  93 CALM      29.91R
AKRON-CANTON   CLOUDY    66  63  90 NW5       29.93S
WOOSTER        FAIR      60  58  92 NW3       29.95R
MANSFIELD      FAIR      58  55  90 W5        29.96S
YOUNGSTOWN     MOCLDY    62  61  96 W3        29.92R
$$

OHZ042-051>053-060>062-070>072-077>081-230900-
  SOUTHWEST OHIO

CITY           SKY/WX    TMP DP  RH WIND       PRES   REMARKS
CINC-COVINGTON MOCLDY    68  62  81 N9        29.98S
CINC-LUNKEN    FAIR      68  59  73 N6        29.98R
HAMILTON       FAIR      61  61 100 CALM      29.99S
DAYTON         FAIR      60  57  89 NW7       29.99S
WRIGHT-PAT AFB FAIR      59  57  92 SW3       29.98R
DAYTON GENERAL FAIR      63  56  78 N6        29.98S
WILMINGTON     FAIR      63  58  83 N5        29.98R
$$

OHZ036-037-039>041-045>050-054>059-063>069-073>076-082>088-230900-
  CENTRAL AND SOUTHEAST OHIO

CITY           SKY/WX    TMP DP  RH WIND       PRES   REMARKS
COLUMBUS       FAIR      64  57  78 NW7       29.95R
OSU AIRPORT    FAIR      62  57  83 NW8       29.96S
BOLTON FIELD   FAIR      61  57  88 CALM      29.97F
RICKENBACK AFB FAIR      64  58  82 NW7       29.95S
NEWARK         FAIR      63  57  81 NW6       29.95R
MARION         FAIR      57  54  89 NW5       29.97S
LANCASTER      FAIR      62  58  86 NW3       29.96R
ZANESVILLE     CLOUDY    68  61  78 NW7       29.94R
NEW PHILLY     FAIR      64  61  90 W5        29.93R
$$




USA.gov is the U.S. government's official web portal to all federal, state and local government web resources and services.